Tracking 27380 objects as of 6-Jun-2023
HD Live streaming from Space Station
objects crossing your sky now

SL-14 DEB

Track SL-14 DEB now!
10-day predictions


NORAD ID: 19230
Int'l Code: 1978-100Z
Perigee: 1,683.5 km
Apogee: 1,704.4 km
Inclination: 82.5 °
Period: 120.1 minutes
Semi major axis: 8064 km
RCS: 0.0516 m2 (small)
Launch date: October 26, 1978
Source: Commonwealth of Independent States (former USSR) (CIS)
Launch site: PLESETSK MISSILE AND SPACE COMPLEX (PKMTR)

Note: This is SATELLITE DEBRIS
Your satellite tracking list
Your tracking list is empty




NASA's NSSDC Master Catalog

Two Line Element Set (TLE):
1 19230U 78100Z   23156.55566660 -.00000032  00000-0 -50947-3 0  9992
2 19230  82.5341 270.8265 0012977 303.0335  68.4098 11.98671164533632
Source of the keplerian elements: AFSPC